Weather History for Ann Arbor, MI

Change the Weather History Date:

Saturday, May 25, 2013

  Actual Average Record
Temperature  
Mean Temperature 46 °F -  
Max Temperature 66 °F 66 °F 88 °F (2012)
Min Temperature 28 °F 44 °F 28 °F (2013)
Degree Days  
Heating Degree Days 19    
Moisture  
Dew Point 33 °F    
Average Humidity 76    
Maximum Humidity 100    
Minimum Humidity 32    
Precipitation  
Precipitation 0.00 in - - ()
Sea Level Pressure  
Sea Level Pressure 30.34 in    
Wind  
Wind Speed 1 mph (NE)    
Max Wind Speed 7 mph    
Max Gust Speed -    
Visibility 6 miles    
Events Fog    
Averages and records for this station are not official NWS values.
T = Trace of Precipitation, MM = Missing Value Source: NWS Daily Summary

Daily Weather History Graph

Daily Weather History Graph

Search for Another Location

Airport:

Trip Planner

Search our weather history database for the weather conditions in past years. The results will help you decide how hot, cold, wet, or windy it might be!

Date:

Astronomy

May. 25, 2013 Rise Set
Actual Time 6:05 AM EDT 8:59 PM EDT
Civil Twilight 5:31 AM EDT 9:32 PM EDT
Nautical Twilight 4:49 AM EDT 10:14 PM EDT
Astronomical Twilight 4:01 AM EDT 11:03 PM EDT
Moon 9:45 PM EDT (5/25) 6:31 AM EDT (5/25)
Length of Visible Light 16h 00m
Length of Day
14h 54m
Full, 100% of the Moon is Illuminated
May 25
Full
May 31
Last Quarter
Jun 8
New
Jun 16
First Quarter
Jun 23
Full

Hourly Weather History & Observations

Time (EDT) Temp. Dew Point Humidity Pressure Visibility Wind Dir Wind Speed Gust Speed Precip Events Conditions
12:53 AM 37.0 °F 35.1 °F 93% 30.35 in 10.0 mi Calm Calm - N/A   Clear
1:53 AM 37.0 °F 35.1 °F 93% 30.35 in 10.0 mi Calm Calm - N/A   Clear
2:53 AM 37.0 °F 35.1 °F 93% 30.36 in 10.0 mi Calm Calm - N/A   Clear
3:53 AM 34.0 °F 33.1 °F 96% 30.36 in 2.5 mi Calm Calm - N/A   Clear
4:01 AM 33.8 °F 33.8 °F 100% 30.35 in 8.0 mi Calm Calm - N/A   Clear
4:11 AM 33.8 °F 32.0 °F 93% 30.35 in 1.8 mi Calm Calm - N/A   Clear
4:21 AM 33.8 °F 30.2 °F 87% 30.35 in 3.0 mi Calm Calm - N/A   Clear
4:25 AM 33.8 °F 30.2 °F 87% 30.35 in 1.8 mi Calm Calm - N/A   Clear
4:36 AM 30.2 °F 30.2 °F 100% 30.34 in 3.0 mi Calm Calm - N/A   Clear
4:40 AM 30.2 °F 30.2 °F 100% 30.34 in 1.8 mi Calm Calm - N/A   Clear
4:53 AM 30.9 °F 30.0 °F 96% 30.36 in 2.5 mi Calm Calm - N/A   Clear
5:02 AM 30.2 °F 30.2 °F 100% 30.34 in 4.0 mi Calm Calm - N/A   Clear
5:09 AM 33.8 °F 32.0 °F 93% 30.34 in 1.8 mi Calm Calm - N/A   Clear
5:13 AM 33.8 °F 32.0 °F 93% 30.34 in 3.0 mi Calm Calm - N/A   Clear
5:29 AM 33.8 °F 32.0 °F 93% 30.34 in 1.2 mi Calm Calm - N/A   Clear
5:40 AM 32.0 °F 32.0 °F 100% 30.33 in 2.5 mi Calm Calm - N/A   Clear
5:44 AM 32.0 °F 32.0 °F 100% 30.33 in 1.2 mi Calm Calm - N/A   Clear
5:53 AM 30.0 °F 30.0 °F 100% 30.35 in 0.5 mi Calm Calm - N/A Fog Light Freezing Fog
6:04 AM 30.2 °F 30.2 °F 100% 30.34 in 1.5 mi Calm Calm - N/A   Clear
6:06 AM 30.2 °F 30.2 °F 100% 30.34 in 3.0 mi Calm Calm - N/A   Clear
6:13 AM 30.2 °F 28.4 °F 93% 30.34 in 1.0 mi Calm Calm - N/A   Clear
6:20 AM 28.4 °F 28.4 °F 100% 30.34 in 0.2 mi Calm Calm - N/A Fog Light Freezing Fog
6:53 AM 32.0 °F 32.0 °F 100% 30.36 in 0.2 mi Calm Calm - N/A Fog Fog
7:07 AM 35.6 °F 35.6 °F 100% 30.34 in 1.8 mi Calm Calm - N/A   Clear
7:14 AM 35.6 °F 33.8 °F 93% 30.34 in 5.0 mi Calm Calm - N/A   Clear
7:53 AM 43.0 °F 37.9 °F 82% 30.37 in 10.0 mi Calm Calm - N/A   Clear
8:53 AM 48.0 °F 35.1 °F 61% 30.40 in 10.0 mi East 3.5 mph - N/A   Overcast
9:53 AM 52.0 °F 30.9 °F 45% 30.41 in 10.0 mi SE 3.5 mph - N/A   Clear
10:53 AM 55.9 °F 33.1 °F 42% 30.40 in 10.0 mi Variable 5.8 mph - N/A   Clear
11:53 AM 55.9 °F 33.1 °F 42% 30.39 in 10.0 mi Variable 3.5 mph - N/A   Clear
12:53 PM 60.1 °F 34.0 °F 38% 30.38 in 10.0 mi Variable 5.8 mph - N/A   Clear
1:53 PM 62.1 °F 32.0 °F 32% 30.35 in 10.0 mi NNE 3.5 mph - N/A   Clear
2:53 PM 62.1 °F 33.1 °F 34% 30.34 in 10.0 mi Variable 3.5 mph - N/A   Clear
3:53 PM 64.9 °F 35.1 °F 33% 30.32 in 10.0 mi Calm Calm - N/A   Clear
4:53 PM 64.9 °F 35.1 °F 33% 30.31 in 10.0 mi NNE 6.9 mph - N/A   Clear
5:53 PM 64.9 °F 36.0 °F 34% 30.30 in 10.0 mi North 4.6 mph - N/A   Clear
6:53 PM 64.0 °F 35.1 °F 34% 30.29 in 10.0 mi North 6.9 mph - N/A   Clear
7:53 PM 61.0 °F 36.0 °F 39% 30.29 in 10.0 mi North 6.9 mph - N/A   Clear
8:53 PM 57.9 °F 37.0 °F 46% 30.29 in 10.0 mi NE 6.9 mph - N/A   Clear
9:53 PM 54.0 °F 36.0 °F 51% 30.30 in 10.0 mi East 3.5 mph - N/A   Clear
10:53 PM 51.1 °F 37.9 °F 61% 30.32 in 10.0 mi Calm Calm - N/A   Clear
11:53 PM 41.0 °F 37.0 °F 86% 30.33 in 10.0 mi Calm Calm - N/A   Clear